Corning, AR

1:17 PM CST on December 14, 2017 (GMT -0600)
Corning

Weather History for K4M9 - February, 2013

Change the Weather History Date:

Monday, February 18, 2013

  Actual Average (KARG) Record (KARG)
Temperature  
Mean Temperature 48 °F -  
Max Temperature 53 °F 49 °F 68 °F (2000)
Min Temperature 42 °F 33 °F 15 °F (2006)
Degree Days  
Heating Degree Days 18    
Moisture  
Dew Point 43 °F    
Average Humidity 79    
Maximum Humidity 94    
Minimum Humidity 66    
Precipitation  
Precipitation 0.26 in - - ()
Sea Level Pressure  
Sea Level Pressure 29.88 in    
Wind  
Wind Speed 19 mph (SSW)    
Max Wind Speed 31 mph    
Max Gust Speed 40 mph    
Visibility 9 miles    
Events Rain , Thunderstorm    
Averages and records for this station are not official NWS values.
T = Trace of Precipitation, MM = Missing Value Source: NWS Daily Summary

Daily Weather History Graph

Daily Weather History Graph

Search for Another Location

Airport or City:

Trip Planner

Search our weather history database for the weather conditions in past years. The results will help you decide how hot, cold, wet, or windy it might be!

Date:

Astronomy

Feb. 18, 2013 Rise Set
Actual Time 6:46 AM CST 5:46 PM CST
Civil Twilight 6:20 AM CST 6:13 PM CST
Nautical Twilight 5:50 AM CST 6:43 PM CST
Astronomical Twilight 5:20 AM CST 7:13 PM CST
Moon 11:37 AM CST (2/18) 1:21 AM CST (2/18)
Length of Visible Light 11h 52m
Length of Day
11h 00m
First Quarter, 58% of the Moon is Illuminated
Feb 18
First Quarter
Feb 25
Full
Mar 4
Last Quarter
Mar 11
New
Mar 19
First Quarter

Hourly Weather History & Observations

Time (CST) Temp. Windchill Dew Point Humidity Pressure Visibility Wind Dir Wind Speed Gust Speed Precip Events Conditions
12:15 AM 46.4 °F 40.1 °F 35.6 °F 66% 30.00 in 10.0 mi South 15.0 mph - N/A   Partly Cloudy
12:35 AM 46.4 °F 40.7 °F 35.6 °F 66% 30.00 in 10.0 mi South 12.7 mph - N/A   Clear
12:55 AM 46.4 °F 40.4 °F 35.6 °F 66% 29.99 in 10.0 mi South 13.8 mph - N/A   Clear
1:15 AM 46.4 °F 40.7 °F 35.6 °F 66% 29.99 in 10.0 mi South 12.7 mph - N/A   Clear
1:35 AM 46.4 °F 40.1 °F 35.6 °F 66% 29.98 in 10.0 mi South 15.0 mph 19.6 mph N/A   Clear
1:55 AM 46.4 °F 39.5 °F 37.4 °F 71% 29.98 in 10.0 mi South 17.3 mph 23.0 mph N/A   Clear
2:15 AM 46.4 °F 39.5 °F 37.4 °F 71% 29.98 in 10.0 mi South 17.3 mph - N/A   Clear
2:35 AM 46.4 °F 40.1 °F 37.4 °F 71% 29.98 in 10.0 mi South 15.0 mph 20.7 mph N/A   Clear
2:55 AM 46.4 °F 38.7 °F 39.2 °F 76% 29.97 in 10.0 mi South 20.7 mph 26.5 mph N/A   Clear
3:15 AM 48.2 °F - 41.0 °F 76% 29.97 in 10.0 mi SSW 24.2 mph 32.2 mph N/A   Clear
3:35 AM 48.2 °F - 41.0 °F 76% 29.97 in 10.0 mi SSW 23.0 mph 28.8 mph N/A   Clear
3:55 AM 48.2 °F - 41.0 °F 76% 29.97 in 10.0 mi SSW 21.9 mph 29.9 mph N/A   Clear
4:15 AM 48.2 °F - 41.0 °F 76% 29.97 in 10.0 mi SSW 27.6 mph 33.4 mph N/A   Clear
4:35 AM 48.2 °F - 41.0 °F 76% 29.97 in 10.0 mi SSW 21.9 mph 29.9 mph N/A   Clear
4:55 AM 48.2 °F - 41.0 °F 76% 29.97 in 10.0 mi SSW 24.2 mph 28.8 mph N/A   Clear
5:15 AM 48.2 °F - 41.0 °F 76% 29.98 in 10.0 mi SSW 20.7 mph 28.8 mph N/A   Clear
5:35 AM 48.2 °F - 41.0 °F 76% 29.97 in 10.0 mi SSW 19.6 mph - N/A   Clear
5:55 AM 48.2 °F - 41.0 °F 76% 29.97 in 10.0 mi SSW 18.4 mph 24.2 mph N/A   Clear
6:15 AM 48.2 °F - 41.0 °F 76% 29.96 in 10.0 mi South 18.4 mph - N/A   Clear
6:55 AM 48.2 °F - 42.8 °F 82% 29.96 in 10.0 mi South 17.3 mph - N/A   Clear
7:15 AM 48.2 °F - 41.0 °F 76% 29.96 in 10.0 mi South 18.4 mph 27.6 mph N/A   Clear
7:35 AM 48.2 °F - 41.0 °F 76% 29.96 in 10.0 mi South 17.3 mph 26.5 mph N/A   Clear
7:55 AM 50.0 °F - 41.0 °F 71% 29.95 in 10.0 mi South 21.9 mph 28.8 mph N/A   Partly Cloudy
8:15 AM 50.0 °F - 41.0 °F 71% 29.94 in 10.0 mi South 25.3 mph 33.4 mph N/A   Partly Cloudy
8:35 AM 50.0 °F - 42.8 °F 76% 29.94 in 10.0 mi South 25.3 mph 32.2 mph N/A   Clear
8:55 AM 53.6 °F - 42.8 °F 67% 29.94 in 10.0 mi South 28.8 mph 36.8 mph N/A   Partly Cloudy
9:15 AM 53.6 °F - 42.8 °F 67% 29.93 in 10.0 mi South 24.2 mph 34.5 mph N/A   Partly Cloudy
9:35 AM 53.6 °F - 42.8 °F 67% 29.92 in 10.0 mi South 25.3 mph 38.0 mph N/A   Clear
9:55 AM 53.6 °F - 42.8 °F 67% 29.92 in 10.0 mi South 28.8 mph 40.3 mph N/A   Clear
10:15 AM 51.8 °F - 42.8 °F 71% 29.93 in 10.0 mi South 27.6 mph 36.8 mph N/A   Scattered Clouds
10:35 AM 51.8 °F - 42.8 °F 71% 29.92 in 10.0 mi South 29.9 mph 39.1 mph N/A   Mostly Cloudy
10:55 AM 50.0 °F - 44.6 °F 82% 29.91 in 2.5 mi South 18.4 mph 28.8 mph N/A   Haze
11:15 AM 50.0 °F - 46.4 °F 87% 29.90 in 1.5 mi South 15.0 mph 21.9 mph N/A   Mostly Cloudy
11:35 AM 50.0 °F - 46.4 °F 87% 29.89 in 2.0 mi South 23.0 mph 29.9 mph 0.01 in   Mostly Cloudy
11:55 AM 50.0 °F - 46.4 °F 87% 29.88 in 10.0 mi South 16.1 mph - 0.01 in   Mostly Cloudy
12:15 PM 50.0 °F - 46.4 °F 87% 29.86 in 10.0 mi South 16.1 mph 20.7 mph N/A   Overcast
12:35 PM 50.0 °F - 46.4 °F 87% 29.85 in 10.0 mi South 19.6 mph 29.9 mph N/A   Overcast
12:55 PM 50.0 °F - 46.4 °F 87% 29.83 in 10.0 mi South 20.7 mph 28.8 mph N/A   Overcast
1:15 PM 50.0 °F - 48.2 °F 94% 29.82 in 10.0 mi South 21.9 mph 31.1 mph N/A   Overcast
1:35 PM 50.0 °F - 48.2 °F 94% 29.80 in 7.0 mi South 23.0 mph 28.8 mph N/A Rain Light Rain
1:55 PM 50.0 °F - 48.2 °F 94% 29.79 in 5.0 mi South 19.6 mph 26.5 mph N/A   Overcast
2:15 PM 51.8 °F - 48.2 °F 88% 29.77 in 10.0 mi South 21.9 mph 31.1 mph N/A   Overcast
2:35 PM 53.6 °F - 50.0 °F 88% 29.75 in 10.0 mi South 20.7 mph 31.1 mph N/A Thunderstorm Thunderstorm
2:55 PM 53.6 °F - 50.0 °F 88% 29.74 in 5.0 mi South 20.7 mph 28.8 mph N/A Rain , Thunderstorm Light Rain
3:15 PM 53.6 °F - 48.2 °F 82% 29.73 in 10.0 mi South 20.7 mph 26.5 mph N/A   Overcast
3:35 PM 53.6 °F - 50.0 °F 88% 29.72 in 3.0 mi South 19.6 mph 28.8 mph 0.04 in Rain , Thunderstorm Rain
3:55 PM 53.6 °F - 50.0 °F 88% 29.70 in 9.0 mi South 20.7 mph 27.6 mph 0.05 in Thunderstorm Overcast
4:15 PM 53.6 °F - 50.0 °F 88% 29.69 in 6.0 mi South 24.2 mph 32.2 mph N/A Rain Light Rain
4:55 PM 53.6 °F - 50.0 °F 88% 29.68 in 3.0 mi South 20.7 mph 28.8 mph 0.01 in Rain , Thunderstorm Light Rain
5:15 PM 53.6 °F - 50.0 °F 88% 29.68 in 8.0 mi South 20.7 mph 31.1 mph N/A   Overcast
5:55 PM 53.6 °F - 50.0 °F 88% 29.69 in 10.0 mi SSW 20.7 mph 26.5 mph N/A Thunderstorm Thunderstorm
6:35 PM 50.0 °F - 46.4 °F 87% 29.71 in 10.0 mi SSW 11.5 mph - 0.18 in Thunderstorm Mostly Cloudy
6:55 PM 50.0 °F - 46.4 °F 87% 29.73 in 10.0 mi West 8.1 mph - 0.19 in   Overcast
7:15 PM 50.0 °F - 46.4 °F 87% 29.73 in 10.0 mi West 6.9 mph - N/A   Overcast
7:35 PM 48.2 °F - 46.4 °F 93% 29.74 in 10.0 mi WSW 9.2 mph - N/A   Mostly Cloudy
7:55 PM 50.0 °F - 48.2 °F 94% 29.75 in 10.0 mi West 19.6 mph - N/A   Partly Cloudy
8:15 PM 50.0 °F - 46.4 °F 87% 29.77 in 10.0 mi West 18.4 mph 26.5 mph N/A   Mostly Cloudy
8:35 PM 50.0 °F - 44.6 °F 82% 29.80 in 10.0 mi WNW 31.1 mph 36.8 mph N/A   Mostly Cloudy
8:55 PM 48.2 °F - 41.0 °F 76% 29.84 in 10.0 mi WNW 27.6 mph 38.0 mph N/A   Overcast
9:15 PM 46.4 °F 39.0 °F 37.4 °F 71% 29.86 in 10.0 mi NW 19.6 mph 33.4 mph N/A   Overcast
9:35 PM 46.4 °F 38.3 °F 37.4 °F 71% 29.88 in 10.0 mi NW 23.0 mph 29.9 mph N/A   Overcast
9:55 PM 44.6 °F 37.8 °F 37.4 °F 76% 29.90 in 10.0 mi NW 15.0 mph 24.2 mph N/A   Scattered Clouds
10:15 PM 44.6 °F 38.8 °F 37.4 °F 76% 29.91 in 10.0 mi WNW 11.5 mph - N/A   Mostly Cloudy
10:35 PM 44.6 °F 36.9 °F 37.4 °F 76% 29.92 in 10.0 mi NW 18.4 mph 24.2 mph N/A   Mostly Cloudy
10:55 PM 44.6 °F 38.1 °F 35.6 °F 71% 29.94 in 10.0 mi NW 13.8 mph - N/A   Mostly Cloudy
11:15 PM 42.8 °F 36.6 °F 35.6 °F 76% 29.94 in 10.0 mi WNW 11.5 mph 16.1 mph N/A   Overcast
11:35 PM 42.8 °F 35.8 °F 35.6 °F 76% 29.96 in 10.0 mi NW 13.8 mph - N/A   Overcast
11:55 PM 44.6 °F 37.4 °F 35.6 °F 71% 29.97 in 10.0 mi NW 16.1 mph - N/A   Overcast